| time (UTC) | temp F | wind direction | speed MPH | gust MPH | rain 1hr in | rain 24hr in | rain mn in | humidity % | barometer mb |
| 20260505100040 | 51 | 310 | 1.0 | 7.0 | 0.01 | 0.17 | 0.03 | 94 | 1009.1 |
| 20260505094504 | 51 | 253 | 1.0 | 7.0 | 0.01 | 0.16 | 0.02 | 95 | 1009.3 |
| 20260505093034 | 51 | 226 | 1.0 | 5.0 | 0.01 | 0.16 | 0.02 | 95 | 1009.6 |
| 20260505091552 | 52 | 238 | 0.0 | 2.0 | 0.01 | 0.16 | 0.02 | 95 | 1009.9 |
| 20260505090107 | 51 | 238 | 0.0 | 1.0 | 0.01 | 0.15 | 0.01 | 95 | 1010.0 |
| 20260505084522 | 51 | 241 | 0.0 | 4.0 | 0.04 | 0.15 | 0.01 | 95 | 1010.0 |
| 20260505083041 | 51 | 258 | 0.0 | 2.0 | 0.06 | 0.15 | 0.01 | 95 | 1010.0 |
| 20260505080054 | 51 | 209 | 0.0 | 3.0 | 0.06 | 0.14 | 0.14 | 94 | 1010.1 |
| 20260505074516 | 51 | 237 | 0.0 | 3.0 | 0.03 | 0.11 | 0.11 | 94 | 1010.0 |
| 20260505073053 | 52 | 236 | 0.0 | 3.0 | 0.01 | 0.09 | 0.09 | 93 | 1010.2 |
| 20260505071606 | 52 | 240 | 0.0 | 1.0 | 0.01 | 0.08 | 0.08 | 93 | 1010.7 |
| 20260505070050 | 52 | 240 | 0.0 | 3.0 | 0.02 | 0.08 | 0.08 | 93 | 1010.4 |
| 20260505064504 | 51 | 240 | 1.0 | 3.0 | 0.03 | 0.08 | 0.08 | 93 | 1010.2 |
| 20260505063033 | 51 | 234 | 0.0 | 4.0 | 0.04 | 0.08 | 0.08 | 93 | 1009.9 |
| 20260505061600 | 51 | 223 | 0.0 | 1.0 | 0.04 | 0.07 | 0.07 | 92 | 1010.0 |
| 20260505060037 | 51 | 223 | 0.0 | 2.0 | 0.03 | 0.06 | 0.06 | 92 | 1010.1 |
| 20260505054504 | 51 | 220 | 1.0 | 7.0 | 0.04 | 0.05 | 0.05 | 91 | 1010.2 |
| 20260505053027 | 52 | 212 | 1.0 | 6.0 | 0.04 | 0.04 | 0.04 | 92 | 1010.1 |
| 20260505051552 | 52 | 227 | 3.0 | 8.0 | 0.03 | 0.03 | 0.03 | 91 | 1010.0 |
| 20260505050113 | 53 | 277 | 1.0 | 4.0 | 0.03 | 0.03 | 0.03 | 89 | 1010.4 |
| 20260505041602 | 54 | 338 | 0.0 | 3.0 | 0.00 | 0.00 | 0.00 | 88 | 1010.7 |
| 20260505040043 | 55 | 217 | 1.0 | 2.0 | 0.00 | 0.00 | 0.00 | 85 | 1010.3 |
| 20260505034507 | 55 | 215 | 1.0 | 3.0 | 0.00 | 0.00 | 0.00 | 83 | 1010.0 |
| 20260505033027 | 56 | 215 | 0.0 | 2.0 | 0.00 | 0.00 | 0.00 | 82 | 1009.7 |
| 20260505031551 | 55 | 215 | 1.0 | 3.0 | 0.00 | 0.00 | 0.00 | 80 | 1009.5 |
| 20260505030042 | 56 | 215 | 2.0 | 4.0 | 0.00 | 0.00 | 0.00 | 79 | 1009.6 |
| 20260505024507 | 56 | 225 | 1.0 | 3.0 | 0.00 | 0.00 | 0.00 | 79 | 1009.7 |
| 20260505023033 | 56 | 224 | 1.0 | 4.0 | 0.00 | 0.00 | 0.00 | 79 | 1009.7 |
| 20260505021550 | 56 | 204 | 0.0 | 4.0 | 0.00 | 0.00 | 0.00 | 80 | 1009.5 |
| 20260505020038 | 56 | 163 | 1.0 | 5.0 | 0.00 | 0.00 | 0.00 | 81 | 1009.6 |
| 20260505014502 | 56 | 181 | 1.0 | 5.0 | 0.00 | 0.00 | 0.00 | 83 | 1009.9 |
| 20260505013028 | 56 | 113 | 0.0 | 2.0 | 0.00 | 0.00 | 0.00 | 86 | 1010.0 |
| 20260505011553 | 56 | 188 | 0.0 | 4.0 | 0.00 | 0.00 | 0.00 | 88 | 1010.0 |
| 20260505010033 | 56 | 212 | 1.0 | 9.0 | 0.00 | 0.00 | 0.00 | 88 | 1010.0 |
| 20260505004558 | 56 | 257 | 1.0 | 9.0 | 0.00 | 0.00 | 0.00 | 88 | 1010.2 |
| 20260505003024 | 57 | 236 | 2.0 | 8.0 | 0.00 | 0.00 | 0.00 | 87 | 1010.3 |
| 20260505001603 | 57 | 246 | 2.0 | 8.0 | 0.00 | 0.00 | 0.00 | 87 | 1010.2 |
| 20260505000040 | 57 | 243 | 3.0 | 9.0 | 0.00 | 0.00 | 0.00 | 86 | 1010.2 |
| 20260504234502 | 57 | 240 | 3.0 | 11.0 | 0.00 | 0.00 | 0.00 | 85 | 1010.1 |
| 20260504233029 | 57 | 204 | 3.0 | 10.0 | 0.00 | 0.00 | 0.00 | 85 | 1010.0 |
| 20260504231550 | 58 | 238 | 1.0 | 7.0 | 0.00 | 0.00 | 0.00 | 85 | 1010.0 |
| 20260504230014 | 58 | 211 | 3.0 | 8.0 | 0.00 | 0.00 | 0.00 | 84 | 1010.0 |
| 20260504224531 | 58 | 231 | 3.0 | 9.0 | 0.00 | 0.00 | 0.00 | 83 | 1010.2 |
| 20260504223046 | 59 | 245 | 4.0 | 9.0 | 0.00 | 0.00 | 0.00 | 81 | 1010.3 |
| 20260504221600 | 60 | 178 | 3.0 | 11.0 | 0.00 | 0.00 | 0.00 | 81 | 1010.3 |
| 20260504221504 | 60 | 274 | 4.0 | 11.0 | 0.00 | 0.00 | 0.00 | 80 | 1010.3 |
| 20260504220049 | 60 | 188 | 3.0 | 8.0 | 0.00 | 0.00 | 0.00 | 80 | 1010.4 |
| 20260504214601 | 60 | 227 | 2.0 | 8.0 | 0.00 | 0.00 | 0.00 | 82 | 1010.5 |
| 20260504213044 | 59 | 185 | 3.0 | 9.0 | 0.00 | 0.00 | 0.00 | 81 | 1010.4 |
| 20260504211549 | 60 | 176 | 4.0 | 10.0 | 0.00 | 0.00 | 0.00 | 78 | 1010.5 |
| 20260504210035 | 61 | 233 | 3.0 | 9.0 | 0.00 | 0.00 | 0.00 | 78 | 1010.5 |
| 20260504204603 | 62 | 278 | 3.0 | 11.0 | 0.00 | 0.00 | 0.00 | 77 | 1010.6 |
| 20260504204501 | 62 | 231 | 4.0 | 11.0 | 0.00 | 0.00 | 0.00 | 77 | 1010.5 |
| 20260504203029 | 62 | 252 | 2.0 | 9.0 | 0.00 | 0.00 | 0.00 | 78 | 1010.5 |
| 20260504201551 | 61 | 208 | 4.0 | 12.0 | 0.00 | 0.00 | 0.00 | 80 | 1010.2 |
| 20260504200037 | 61 | 196 | 7.0 | 13.0 | 0.00 | 0.00 | 0.00 | 78 | 1010.4 |
| 20260504194504 | 61 | 168 | 8.0 | 17.0 | 0.00 | 0.00 | 0.00 | 78 | 1010.5 |
| 20260504193030 | 61 | 179 | 5.0 | 10.0 | 0.00 | 0.00 | 0.00 | 77 | 1010.5 |
| 20260504191552 | 61 | 173 | 5.0 | 13.0 | 0.00 | 0.00 | 0.00 | 76 | 1010.6 |
| 20260504190046 | 61 | 160 | 5.0 | 14.0 | 0.00 | 0.00 | 0.00 | 76 | 1010.5 |
| 20260504184513 | 61 | 167 | 5.0 | 13.0 | 0.00 | 0.00 | 0.00 | 77 | 1010.7 |
| 20260504183033 | 60 | 188 | 5.0 | 10.0 | 0.00 | 0.00 | 0.00 | 79 | 1010.5 |
| 20260504181601 | 60 | 215 | 5.0 | 10.0 | 0.00 | 0.00 | 0.00 | 78 | 1010.3 |
| 20260504180040 | 60 | 159 | 4.0 | 12.0 | 0.00 | 0.00 | 0.00 | 79 | 1010.2 |
| 20260504174506 | 61 | 229 | 6.0 | 14.0 | 0.00 | 0.00 | 0.00 | 77 | 1010.2 |
| 20260504173036 | 60 | 213 | 7.0 | 15.0 | 0.00 | 0.00 | 0.00 | 80 | 1010.1 |
| 20260504171553 | 60 | 180 | 2.0 | 9.0 | 0.00 | 0.00 | 0.00 | 82 | 1010.1 |